Showing default

TJS-19, 63924

Orbit data source: Space-Track

TJS-19, 63924 is a payload satellite owned by SAST (CN) in GEO that was launched on Mon, 12 May 2025 UTC via a CHANG ZHENG 3C launch vehicle from the Xichang Space Center, China (XSC). Payload-class satellites include a variety of spacecraft equipped with specific instruments for various scientific and technological missions. These include communications satellites like Starlink; space stations such as the ISS; scientific satellites like the Hubble; Earth observation satellites from companies like Planet Labs, Umbra, and HawkEye 360; GPS; miniature CubeSats for education and research; and military/defense satellites.

Not visible in the next 10 days
Identifier
63924, 2025-097A
Orbit
GEO
Country
Flag of CNCN / PRC
Related business
Manufacturer
SAST
Mission
Operational Defense Technology
Bus & Motor
FY-4?, LAE
Mass
~3,000 kg wet, ~2,500 kg dry
Launch date (UTC)
2025-05-12 (1 year ago)
Launch vehicle
CHANG ZHENG 3C
Launch site
Xichang Space Center, China (XSC)
Object type
Payload
Rocket body
Debris
Shape & HBR
Box + 2 Pan, 15.0 m
Radar Cross Section
34.063 m², Large (>1 m²)

Expand to show TLE details & history
Last TLE update: 22 hours ago

TLE from 22 hours ago
0 TJS-19
1 63924U 25097A   26194.73157992 -.00000278  00000-0  00000+0 0  9999
2 63924   3.2430 317.8726 0003966 245.4291 132.8569  1.00266719  4418
Epoch: 2026-07-13T17:33Z
TLE epoch observation values (Epoch: 2026-07-13T17:33:28.505Z)
Latitude
1.00035°
Longitude
141.19002°
Altitude
35,798.692 km
Speed
3.074 km/s
True Right ascension
22h 24m 40s
True Declination
0° 59' 58"
Sunlit
Object was in daylight at epoch
Visualization orbit readout
Latitude
Unknown
Longitude
Unknown
Altitude
Unknown
Speed
Unknown
Apparent Right ascension
Unknown
Apparent Declination
Unknown
Sunlit
N/A
Visualization observer readout
Local Sidereal Time
04:19:27
Azimuth
Unknown
Elevation
Unknown
Doppler factor
Unknown
Orbital elements
Apogee altitude
35,805.804 km
Perigee altitude
35,772.357 km
Semi-major axis
42,167.218 km
Eccentricity
0.0004
Inclination
3.243°
RAAN
317.8726°
Arg. of periapsis
245.4291°
True anomaly
132.8902°
Mean anomaly
132.8569°
Eccentric anomaly
132.87355°
Mean motion
0.25066 °/min
Orbital period
1,436.22 mins
BSTAR
0
Loading maneuver chart data...
Computing Atmospheric mass density...
Loading historical data...
Loading historical data...
Loading historical data...
Loading historical data...
Loading historical data...
Loading historical data...
Loading historical data...
Other satellites on launch #97 in the year 2025 (2025-05-12 UTC)

Documentation

Showing up to 5 results
|